Weather in Turnhout

Belgium     51°19′03″N   4°57′00″E
temp.,
°C
wind,
m/s
gust,
m/s
humid.,
%
clouds,
%
prec.,
mm/h
press.,
hPa
HPBL,
m
16 january, sun
sun1601:00+2sw3786100 0.0 1024146
04:00+1sw3894100 0.0 1023206
07:00+3sw41093100 0.0 1024314
10:00+4sw41186100 0.0 1025409
13:00+6wsw5118881 0.2 1025511
16:00+6sw51189100 0.0 1026471
19:00+5wsw51193100 0.1 1028462
22:00+4wsw389896 0.0 1030213
17 january, mon
mon1701:00+5wsw389699 0.1 1032262
04:00+4w37965 0.0 1032186
07:00+3w310969 0.0 1033279
10:00+4w41196100 0.0 1034398
13:00+8wnw5107576 0.0 1035596
16:00+8nw38805 0.0 1035450
19:00+5nw26945 0.0 1037134
22:00+4nw22953 0.0 103825
18 january, tue
tue1801:00+4n22960 0.0 103824
04:00+3nne119724 0.0 103810
07:00+3sse009872 0.0 103810
10:00+5sw119282 0.0 103985
13:00+6sse228376 0.0 1039419
16:00+6sse238296 0.0 1037435
19:00+4ese1191100 0.0 103611
22:00+3ese009299 0.0 103610
19 january, wed
wed1901:00+2se239399 0.0 103348
04:00+1s229212 0.0 103134
07:00+1sw23915 0.0 102949
10:00+2ssw26842 0.0 1027173
13:00+5sw466947 0.0 1025414
16:00+5sw4875100 0.0 1021448
19:00+4sw5128388 0.0 1020439
22:00+5sw61390100 0.4 1018589
20 january, thu
thu2001:00+5nnw61289100 1.1 1019792
04:00+4nw6127820 0.0 1020812
07:00+3nw6127872 0.2 10221135
10:00+2nnw61372100 0.2 10241695
13:00+4nnw6126494 0.7 10261617
16:00+4nnw6116911 0.2 10261389
19:00+2nw39745 0.2 1029271
22:00+1nw310825 0.0 1030253